Location: Casteau
(50.5142°N, 4.0161°E)
Time: 05:51:43
(UTC+00:00)

Vanguard 1 Rocket - Pass Details

Date: 01 August 2021
Orbit: 650 x 4226 km, 34.3° (Epoch: 21 September)

Event Time Altitude Azimuth Distance (km) Brightness Sun altitude
Rises 14:12:45 0° 265° (W) 5,945 12.1 46.8°
Reaches altitude 10° 14:18:37 10° 251° (WSW) 4,204 11.7 46.0°
Maximum altitude 14:25:09 19° 212° (SSW) 2,730 10.9 45.1°
Drops below altitude 10° 14:29:44 10° 168° (SSE) 2,804 10.2 44.5°
Sets 14:32:39 0° 149° (SSE) 3,435 10.4 44.1°
